Regional Weather Roundup
Issued by NWS

Home | Current Version | Previous Version | Text Only | Print | Product List | Glossary Off
Versions: 1 2 3 4 5 6 7 8 9 10 11 12 13 14 15 16 17 18 19 20 21 22 23 24 25 26 27 28 29 30 31 32 33 34 35 36 37 38 39 40 41 42 43 44 45 46 47 48 49 50

000
ASUS43 KFSD 290310
RWRSD

WEATHER ROUNDUP FOR SOUTH DAKOTA
NATIONAL WEATHER SERVICE SIOUX FALLS SD
900 PM CST WED JAN 28 2015

NOTE: "FAIR" INDICATES FEW OR NO CLOUDS BELOW 12,000 FEET WITH NO
SIGNIFICANT WEATHER AND/OR OBSTRUCTIONS TO VISIBILITY.


SDZ001>005-009-010-012>017-290400-
NORTHWEST AND NORTH CENTRAL SOUTH DAKOTA

CITY           SKY/WX    TMP DP  RH WIND       PRES   REMARKS
BUFFALO          N/A     33  27  78 NW24      30.19R WCI  20
FAITH            N/A     35  27  72 N28G35    30.20R WCI  22
MOBRIDGE       CLOUDY    35  27  72 NW22G35   30.12R WCI  23
$$

SDZ012>016-024>037-041>051-057-063-072>074-290400-
SOUTHWEST AND SOUTH CENTRAL SOUTH DAKOTA

CITY           SKY/WX    TMP DP  RH WIND       PRES   REMARKS
RAPID CTY ARPT CLEAR     34  28  79 N25       30.22R WCI  21
PIERRE         CLOUDY    36  29  75 NW31G37   30.12R
CUSTER         CLEAR     33  17  51 NW5       30.19R WCI  29
ELLSWORTH AFB  MOCLDY    35  29  79 N23G29    30.22  WCI  22
PHILIP         CLOUDY    38  29  70 N31G40    30.20R
PINE RIDGE     CLEAR     35  28  75 N22G35    30.21R WCI  23
WINNER         CLOUDY    37  30  75 NW31G45   30.12R
$$

SDZ004>011-016>023-039-040-290400-
NORTHEAST SOUTH DAKOTA

CITY           SKY/WX    TMP DP  RH WIND       PRES   REMARKS
ABERDEEN       CLOUDY    34  28  79 N26G36    30.05R WCI  21
WATERTOWN      CLOUDY    33  30  88 N25G32    29.92R WCI  20
SISSETON         N/A     33  33 100 N22G29    29.94R WCI  21
$$

SDZ017-020-022-023-036>040-048>070-290400-
SOUTHEAST SOUTH DAKOTA

CITY           SKY/WX    TMP DP  RH WIND       PRES   REMARKS
SIOUX FALLS    CLOUDY    38  34  85 NW20G25   29.87R
HURON          MIX PCPN  34  31  88 NW24G33   30.01R WCI  21
CHAMBERLAIN    CLOUDY    35  29  79 NW36G43   30.09R WCI  20
MITCHELL       CLOUDY    36  32  85 N23G37    30.02R
YANKTON        CLOUDY   N/A N/A N/A NW25G35   29.93R
$$

ABBREVIATIONS USED IN REMARKS
   TC - TEMPERATURE IN CELSIUS
  WCI - WIND CHILL INDEX
   HX - HEAT INDEX
  VSB - VISIBILITY



USA.gov is the U.S. government's official web portal to all federal, state and local government web resources and services.